{"data":{"norad_id":60727,"intl_designator":"2024-152H","name":"STARLINK-11080 [DTC]","alt_names":[],"object_type":"PAYLOAD","status":"ACTIVE","operator":null,"country":"US","launch_date":"2024-08-28","launch_site_code":"AFETR","launch_vehicle":null,"mission":null,"orbit_class":"UNKNOWN","rcs_meters":null,"size_class":null,"mass_kg":null,"dimensions":null,"purposes":["comms"],"wikipedia_slug":null,"has_3d_model":false,"image_url":null,"decayed_at":null,"tle_current":{"epoch":"2026-05-25T03:22:25.353408Z","epoch_age_seconds":62367,"freshness":"FRESH","line1":"1 60727U 24152H   26145.14057122  .00000761  00000+0  11139-4 0  9998","line2":"2 60727  53.1586  99.3006 0000960  77.0578 283.0547 15.69706257100972","mean_motion":15.69706257,"eccentricity":9.6e-5,"inclination_deg":53.1586,"raan_deg":99.3006,"arg_perigee_deg":77.0578,"mean_anomaly_deg":283.0547,"bstar":1.1139e-5,"rev_number":10097,"period_min":91.736908964873,"perigee_km":359.09062552602,"apogee_km":360.38429742262,"semimajor_km":6737.8744614743,"source":"CELESTRAK","updated_at":"2026-05-25T13:38:19.308700Z"}}}